[Iaude] MPEC T34: 2023 TQ [a=1.21,e=0.20,i=23.6,H=25.6]

mpec at marsden.cfa.harvard.edu mpec at marsden.cfa.harvard.edu
Thu Oct 5 21:57:25 EDT 2023


M.P.E.C. 2023-T34                               Issued 2023 October 6, 01:55 UT

     The Minor Planet Electronic Circulars contain information on unusual
         minor planets, routine data on comets and natural satellites,
         and occasional editorial announcements.  They are published
    on behalf of Division F of the International Astronomical Union by the
          Minor Planet Center, Smithsonian Astrophysical Observatory,
                          Cambridge, MA 02138, U.S.A.
			  
             Prepared using the Tamkin Foundation Computer Network

                              MPC at CFA.HARVARD.EDU
            URL https://www.minorplanetcenter.net/    ISSN 1523-6714

                                    2023 TQ                                     


Observations:
     K23T00Q*1C2023 10 04.40132901 35 12.290+45 53 33.10         19.04GVET034G96
     K23T00Q 1C2023 10 04.40649401 35 23.240+45 50 16.60               VET034G96
     K23T00Q 1C2023 10 04.41165801 35 34.250+45 46 58.70               VET034G96
     K23T00Q 1C2023 10 04.41682101 35 45.270+45 43 39.90         18.70GVET034G96
     K23T00Q  C2023 10 04.43243201 36 17.618+45 33 14.16         18.4 GVET034H01
     K23T00Q KC2023 10 04.43411101 36 22.482+45 32 26.34         18.47GVET034I52
     K23T00Q KC2023 10 04.43461301 36 23.573+45 32 06.58         18.66GVET034I52
     K23T00Q KC2023 10 04.43512401 36 24.692+45 31 46.88         18.99GVET034I52
     K23T00Q  C2023 10 04.43570901 36 24.720+45 31 05.64         19.1 GVET034H01
     K23T00Q  C2023 10 04.44601201 36 47.096+45 24 19.76         18.8 GVET034H01
     K23T00Q  C2023 10 04.45312201 37 02.602+45 19 37.79         19.1 GVET034H01
     K23T00Q mC2023 10 04.50930401 39 07.578+44 41 59.78         18.27GVET034I52
     K23T00Q mC2023 10 04.50947401 39 07.992+44 41 52.91         18.42GVET034I52
     K23T00Q mC2023 10 04.50965401 39 08.341+44 41 45.71         18.66GVET034I52
     K23T00Q mC2023 10 04.50982801 39 08.784+44 41 38.47         19.39GVET034I52
     K23T00Q KC2023 10 04.78489 01 50 51.65 +41 20 11.6          18.7 GXET034G02
     K23T00Q KC2023 10 04.78835 01 50 59.84 +41 17 31.9          19.1 GXET034G02
     K23T00Q KC2023 10 04.79203 01 51 08.52 +41 14 43.1          18.8 GXET034G02
     K23T00Q KC2023 10 04.81606101 52 08.83 +40 56 08.3          18.2 GVET034104
     K23T00Q KC2023 10 04.82509601 52 30.15 +40 49 05.1          17.9 GVET034104
     K23T00Q KC2023 10 04.82660101 52 33.61 +40 47 54.3          17.7 GVET034104
     K23T00Q KC2023 10 04.85748101 53 48.76 +40 22 54.0          18.5 GXET034958
     K23T00Q KC2023 10 04.86157001 53 58.37 +40 19 36.4          17.8 GXET034958
     K23T00Q KC2023 10 04.86560201 54 07.88 +40 16 23.4          18.0 GXET034958
     K23T00Q KB2023 10 04.89371901 55 08.419+39 53 28.61               XET034K74
     K23T00Q KB2023 10 04.89782301 55 17.954+39 50 06.11               XET034K74
     K23T00Q KB2023 10 04.90189101 55 27.442+39 46 44.58               XET034K74
     K23T00Q KB2023 10 04.90246401 55 33.80 +39 46 25.3          17.9 GVET034I93
     K23T00Q KB2023 10 04.90418801 55 37.81 +39 45 00.0          18.4 GVET034I93
     K23T00Q KB2023 10 04.90591101 55 41.83 +39 43 35.0          18.9 GVET034I93
     K23T00Q KB2023 10 04.90759601 55 45.78 +39 42 11.4          18.7 GVET034I93
     K23T00Q hC2023 10 04.96010701 57 41.47 +38 58 18.2          18.6 GVET034L01
     K23T00Q hC2023 10 04.96096501 57 43.38 +38 57 34.2          18.1 GVET034L01
     K23T00Q hC2023 10 04.96168901 57 45.03 +38 56 56.8          18.2 GVET034L01
     K23T00Q hC2023 10 04.96247801 57 46.85 +38 56 16.4          18.2 GVET034L01
     K23T00Q hC2023 10 04.96326801 57 48.67 +38 55 35.3          18.5 GVET034L01
     K23T00Q KC2023 10 05.26841102 10 33.73 +34 08 10.8          18.1 GXET034858
     K23T00Q KC2023 10 05.26961702 10 36.53 +34 06 57.7          18.2 GXET034858
     K23T00Q KC2023 10 05.27075302 10 39.18 +34 05 48.3          18.6 GXET034858
     K23T00Q KC2023 10 05.83940 02 35 04.76 +22 48 58.2          17.4 GVET034C82
     K23T00Q KC2023 10 05.84227 02 35 12.01 +22 45 10.3          18.3 GVET034C82
     K23T00Q KC2023 10 05.84457 02 35 17.94 +22 42 05.9                VET034C82
     K23T00Q KC2023 10 05.87565 02 36 35.59 +22 00 22.3          18.6 GVET034C82
     K23T00Q KC2023 10 05.89149702 37 14.191+21 37 03.00         18.3 GVET034Z80
     K23T00Q KC2023 10 05.89702702 37 28.267+21 29 31.67         18.5 GVET034Z80
     K23T00Q KB2023 10 05.90061702 37 35.556+21 25 08.69               XET034K74
     K23T00Q KB2023 10 05.90395002 37 43.855+21 20 35.74               XET034K74
     K23T00Q KC2023 10 05.93648202 39 04.65 +20 36 19.3          18.2 GXET034595
     K23T00Q KC2023 10 05.94013802 39 13.64 +20 31 14.5          18.1 GXET034595
     K23T00Q KC2023 10 05.94379402 39 22.67 +20 26 10.2          18.0 GXET034595

Observer details:
104 San Marcello Pistoiese.  Observers P. Bacci, M. Maestripieri.  Measurers
    P. Bacci, L. Tesi, G. Fagioli.  0.60-m F4 Reflector + CCD.
595 Farra d'Isonzo.  Observer E. Pettarin.  0.61-m f/4.5 reflector + CCD.
858 Tebbutt Observatory, Edgewood.  Observer F. B. Zoltowski.  0.51-m f/8.1
    Schmidt-Cassegrain + CCD.
958 Observatoire de Dax.  Observers P. Dupouy, J. B. de Vanssay.  Measurer P.
    Dupouy.  0.43-m f/2.7 Reflector + CCD.
C82 Osservatorio Astronomico Nastro Verde, Sorrento.  Observer N. Ruocco.
    0.35-m f/6.3  Schmidt-Cassegrain + CCD.
G02 KYSUCE Observatory, Kysucke Nove Mesto.  Observer M. Urbanik.  0.40-m
    f/6.8 Corrected Dall-Kirkham + CCD.
G96 Mt. Lemmon Survey.  Observer G. J. Leonard.  Measurers E. C. Beshore, D.
    Fay, J. B. Fazekas, D. C. Fuls, A. R. Gibbs, A. D. Grauer, H. Groeller, J.
    K. Hogan, R. A. Kowalski, S. M. Larson, G. J. Leonard, D. Rankin, R. L.
    Seaman, F. C. Shelly, K. W. Wierzchos.  1.5-m reflector + 10K CCD.
H01 Magdalena Ridge Observatory, Socorro.  Observers W. H. Ryan, E. V. Ryan.
    Measurer W. H. Ryan.  2.4-m f/8.9 Ritchey-Chretien + CCD.
I52 Steward Observatory, Mt. Lemmon Station.  Observer D. Rankin.  Measurers
    E. C. Beshore, D. Fay, J. B. Fazekas, D. C. Fuls, A. R. Gibbs, A. D.
    Grauer, H. Groeller, J. K. Hogan, R. A. Kowalski, S. M. Larson, G. J.
    Leonard, D. Rankin, R. L. Seaman, F. C. Shelly, K. W. Wierzchos.  1.0-m
    prime focus + CCD.
I93 St Pardon de Conques.  Observer F. Losse.  0.40-m f/3.7 reflector + CMO.
K74 Muensterschwarzach Observatory, Schwarzach.  Observer C. Gerhard.  0.30-m
    f/3.75 reflector + CMO.
L01 Visnjan Observatory, Tican.  Observer K. Korlevic.  1.0-m f/2.9 reflector
    + CCD.
Z80 Northolt Branch Observatory.  Observer G. Wells.  Measurers G. Wells, D.
    Bamberger.  0.25-m f/8.0 Ritchey-Chretien + CCD.

Orbital elements:
2023 TQ                                                  Earth MOID = 0.0129 AU
Epoch 2023 Sept. 13.0 TT = JDT 2460200.5                Veres                   
M 312.39790              (2000.0)            P               Q                  
n   0.74388509     Peri.  225.10278     +0.54510180     -0.83370161             
a   1.2063282      Node   192.75431     +0.83664496     +0.54770782             
e   0.2014227      Incl.   23.58987     +0.05375166     -0.07041143             
P   1.32           H   25.64          G   0.15           U   7                  
Residuals in seconds of arc
231004 G96  0.5+  1.1-    231004 G02  0.1+  0.3-    231004 L01  0.8-  0.9+
231004 G96  0.1-  0.0     231004 104  0.6+  0.2-    231004 L01  0.7-  0.7+
231004 G96  0.3-  0.4+    231004 104  0.7+  0.2-    231005 858  0.1-  0.1+
231004 G96  0.5-  0.8+    231004 104  0.2-  0.3-    231005 858  0.5-  0.5+
231004 H01  0.3+  0.4-    231004 958  0.0   0.8+    231005 858  0.6-  0.3+
231004 I52  0.1+  0.2-    231004 958  0.6-  0.8-    231005 C82  0.1-  0.0
231004 I52  0.2+  0.3-    231004 958  0.6-  0.1-    231005 C82  0.1+  1.1+
231004 I52  0.4+  0.0     231004 K74  0.6-  0.4+    231005 C82  2.0+  0.5+
231004 H01  0.4+  0.4-    231004 K74  0.8-  0.5+    231005 C82  0.5-  1.1-
231004 H01  0.3+  0.2-    231004 K74  0.4-  0.3+    231005 Z80  0.9-  0.3-
231004 H01  0.3+  0.1-    231004 I93  0.5-  0.5+    231005 Z80  0.4+  0.3+
231004 I52  0.0   0.1-    231004 I93  0.6-  0.3+    231005 K74  0.3+  0.3-
231004 I52  0.4+  0.0     231004 I93  0.6-  0.5+    231005 K74  0.0   0.4+
231004 I52  0.2-  0.2+    231004 I93  0.3-  0.3+    231005 595  0.5-  0.5-
231004 I52  0.4+  0.2+    231004 L01  0.1-  0.2+    231005 595  0.6-  0.6-
231004 G02  0.2+  0.7-    231004 L01  0.8-  0.5+    231005 595  0.0   0.4+
231004 G02  0.2+  1.3-    231004 L01  0.9-  0.5+

Ephemeris:
2023 TQ                  a,e,i = 1.21, 0.20, 24                  q = 0.9633
Date    TT    R. A. (2000) Decl.     Delta      r    Elong.  Phase     V
2023 09 06    21 50 23.2 +65 31 27   0.2294  1.0964   106.7    61.7    24.8
...
2023 09 21    22 15 54.1 +66 36 58   0.1201  1.0520   110.3    63.5    23.4
...
2023 09 29    23 19 09.3 +64 28 37   0.06056 1.0306   116.7    60.3    21.8
...
2023 10 05    01 59 09.6 +38 25 03   0.01986 1.0159   141.6    37.7    18.7
2023 10 06    02 41 32.1 +19 12 15   0.01600 1.0136   148.1    31.4    18.0
2023 10 07    03 24 50.1 -06 49 26   0.01530 1.0113   139.2    40.3    18.2
...
2023 10 13    06 21 57.0 -61 20 26   0.05036 0.9986    89.2    87.9    22.2
...
2023 10 21    07 37 02.0 -66 21 05   0.1090  0.9842    80.8    92.9    24.1
...
2023 11 05    08 23 59.1 -67 35 19   0.2145  0.9667    77.1    90.4    25.4

M. P. C. Staff               (C) Copyright 2023 MPC           M.P.E.C. 2023-T34





More information about the Iaude mailing list